M I D A S
Marine Information and Data Acquisition System
Tripno 811 of the Zeeleeuw from 2004-11-23 08:13:38 to 2004-11-23 15:31:57
Back to CruiseResearch ActivitiesStationsMapUnderway DataData graphs

EquipmentUnitsComments
TimeDGPSUTC
LatitudeDGPSDM.mWGS84
LongitudeDGPSDM.mWGS84
SpeedMeteo Stationm/sRelative wind speed
DirectionMeteo StationdegRelative wind direction
TemperatureMeteo Stationdeg CelciusAir temperature
PressureMeteo StationPaAtmospheric pressure
HumidityMeteo Station%Relative humidity
Missing or incorrect values are displayed as -999
Metereological data collected by the RV Zeeleeuw from 2004-11-23 06:49:41 to 2004-11-23 15:42:07
                                                                                    Next 1000 lines
Time Latitude Longitude Speed Direction Temperature Pressure Humidity
2004-11-23 06:49:51 51°13.616 2°56.064 3.8 200 10.7 102300 86
2004-11-23 06:49:56 51°13.616 2°56.064 4.3 214 10.7 102300 86
2004-11-23 06:50:00 51°13.616 2°56.064 4.5 185 10.8 102300 86
2004-11-23 06:50:06 51°13.616 2°56.064 3.3 195 10.8 102300 86
2004-11-23 06:50:09 51°13.616 2°56.064 4.6 204 10.7 102310 86
2004-11-23 06:50:16 51°13.616 2°56.064 4.7 215 10.7 102310 86
2004-11-23 06:50:21 51°13.616 2°56.064 5.1 237 10.7 102300 86
2004-11-23 06:50:25 51°13.616 2°56.064 5.8 201 10.7 102300 86
2004-11-23 06:50:30 51°13.616 2°56.063 5 202 10.7 102310 86
2004-11-23 06:50:36 51°13.616 2°56.063 5.2 198 10.7 102310 86
2004-11-23 06:50:41 51°13.616 2°56.063 5 178 10.7 102310 86
2004-11-23 06:50:46 51°13.616 2°56.063 4.2 167 10.7 102310 86
2004-11-23 06:50:50 51°13.616 2°56.063 5 220 10.7 102310 86
2004-11-23 06:50:56 51°13.617 2°56.063 7.2 201 10.7 102310 86
2004-11-23 06:51:01 51°13.617 2°56.063 7.1 207 10.7 102310 86
2004-11-23 06:51:06 51°13.617 2°56.063 4.7 202 10.7 102310 86
2004-11-23 06:51:09 51°13.617 2°56.064 5.1 186 10.7 102310 86
2004-11-23 06:51:16 51°13.617 2°56.064 5 202 10.7 102310 86
2004-11-23 06:51:20 51°13.617 2°56.064 5.9 216 10.7 102310 86
2004-11-23 06:51:26 51°13.617 2°56.063 4 209 10.7 102310 86
2004-11-23 06:51:31 51°13.617 2°56.063 4.2 210 10.7 102310 86
2004-11-23 06:51:36 51°13.617 2°56.063 3.6 204 10.7 102310 86
2004-11-23 06:51:40 51°13.617 2°56.063 4.5 214 10.7 102310 86
2004-11-23 06:51:46 51°13.617 2°56.063 5.8 203 10.7 102310 86
2004-11-23 06:51:51 51°13.617 2°56.063 5.8 199 10.7 102310 86
2004-11-23 06:51:56 51°13.617 2°56.063 5 199 10.7 102310 86
2004-11-23 06:52:01 51°13.617 2°56.063 5.3 207 10.7 102310 86
2004-11-23 06:52:06 51°13.617 2°56.063 4.4 199 10.7 102310 86
2004-11-23 06:52:11 51°13.617 2°56.063 5.3 215 10.7 102310 86
2004-11-23 06:52:16 51°13.617 2°56.063 2.7 191 10.7 102310 86
2004-11-23 06:52:21 51°13.617 2°56.063 2.7 195 10.7 102310 86
2004-11-23 06:52:26 51°13.617 2°56.063 5.3 215 10.7 102310 86
2004-11-23 06:52:31 51°13.617 2°56.063 6.3 216 10.7 102310 86
2004-11-23 06:52:36 51°13.617 2°56.063 6.2 199 10.7 102310 86
2004-11-23 06:52:40 51°13.617 2°56.063 6.6 210 10.7 102310 86
2004-11-23 06:52:46 51°13.618 2°56.063 4 178 10.7 102310 86
2004-11-23 06:52:51 51°13.618 2°56.063 3.7 199 10.7 102310 86
2004-11-23 06:52:56 51°13.618 2°56.063 4.9 202 10.7 102310 86
2004-11-23 06:53:01 51°13.618 2°56.063 3.2 184 10.7 102310 86
2004-11-23 06:53:06 51°13.618 2°56.063 5.3 197 10.7 102310 86
2004-11-23 06:53:11 51°13.618 2°56.063 6.2 200 10.7 102320 86
2004-11-23 06:53:16 51°13.618 2°56.063 6.2 206 10.7 102320 86
2004-11-23 06:53:21 51°13.618 2°56.063 5.5 202 10.7 102310 86
2004-11-23 06:53:26 51°13.618 2°56.062 5.4 208 10.7 102310 86
2004-11-23 06:53:31 51°13.618 2°56.062 4.9 208 10.7 102310 86
2004-11-23 06:53:36 51°13.618 2°56.062 5.4 207 10.7 102310 86
2004-11-23 06:53:41 51°13.618 2°56.062 6.4 211 10.6 102310 86
2004-11-23 06:53:46 51°13.618 2°56.062 5.4 202 10.6 102310 86
2004-11-23 06:53:51 51°13.618 2°56.062 3.9 191 10.6 102310 86
2004-11-23 06:53:56 51°13.618 2°56.062 4.1 201 10.6 102310 86
2004-11-23 06:54:01 51°13.618 2°56.062 5.5 200 10.6 102310 86
2004-11-23 06:54:06 51°13.618 2°56.062 5.2 194 10.6 102310 86
2004-11-23 06:54:10 51°13.618 2°56.062 5.3 207 10.6 102320 86
2004-11-23 06:54:16 51°13.618 2°56.062 5.1 202 10.6 102320 86
2004-11-23 06:54:21 51°13.618 2°56.062 5.2 205 10.6 102310 86
2004-11-23 06:54:26 51°13.618 2°56.062 6.6 214 10.6 102310 86
2004-11-23 06:54:30 51°13.617 2°56.062 5.1 200 10.6 102310 86
2004-11-23 06:54:36 51°13.617 2°56.061 5.8 217 10.6 102310 86
2004-11-23 06:54:41 51°13.617 2°56.061 6.9 214 10.6 102310 86
2004-11-23 06:54:46 51°13.617 2°56.061 5.3 203 10.6 102310 86
2004-11-23 06:54:50 51°13.617 2°56.061 4.7 209 10.6 102310 86
2004-11-23 06:54:56 51°13.618 2°56.061 4 195 10.6 102310 86
2004-11-23 06:55:01 51°13.618 2°56.061 3.5 199 10.6 102310 86
2004-11-23 06:55:06 51°13.618 2°56.061 6.9 198 10.6 102310 86
2004-11-23 06:55:11 51°13.618 2°56.061 5.2 201 10.6 102310 86
2004-11-23 06:55:16 51°13.618 2°56.061 5.3 209 10.6 102310 86
2004-11-23 06:55:21 51°13.618 2°56.061 5.7 198 10.6 102320 86
2004-11-23 06:55:26 51°13.618 2°56.061 4.6 189 10.6 102320 86
2004-11-23 06:55:31 51°13.618 2°56.061 5.7 217 10.6 102310 86
2004-11-23 06:55:36 51°13.618 2°56.061 3.5 198 10.6 102310 86
2004-11-23 06:55:41 51°13.618 2°56.06 3.5 202 10.6 102320 87
2004-11-23 06:55:46 51°13.618 2°56.06 4.1 212 10.6 102320 87
2004-11-23 06:55:51 51°13.618 2°56.06 6 220 10.6 102320 87
2004-11-23 06:55:56 51°13.618 2°56.06 4.4 207 10.6 102320 87
2004-11-23 06:56:01 51°13.618 2°56.06 4.7 206 10.6 102320 87
2004-11-23 06:56:06 51°13.618 2°56.06 6.5 208 10.6 102320 87
2004-11-23 06:56:11 51°13.618 2°56.06 5.2 200 10.6 102310 87
2004-11-23 06:56:16 51°13.618 2°56.06 4.8 204 10.6 102310 87
2004-11-23 06:56:21 51°13.618 2°56.06 4.1 207 10.6 102320 87
2004-11-23 06:56:26 51°13.618 2°56.06 4.6 212 10.6 102320 87
2004-11-23 06:56:30 51°13.618 2°56.06 6.3 209 10.6 102320 87
2004-11-23 06:56:36 51°13.618 2°56.06 4.5 203 10.6 102320 87
2004-11-23 06:56:40 51°13.618 2°56.06 4.3 211 10.5 102320 87
2004-11-23 06:56:46 51°13.618 2°56.06 5.1 191 10.5 102320 87
2004-11-23 06:56:50 51°13.618 2°56.06 2.8 182 10.5 102310 87
2004-11-23 06:56:56 51°13.618 2°56.06 5.6 207 10.5 102310 87
2004-11-23 06:57:01 51°13.618 2°56.06 5.6 195 10.5 102320 87
2004-11-23 06:57:06 51°13.618 2°56.06 4 203 10.5 102320 87
2004-11-23 06:57:11 51°13.618 2°56.06 3.2 194 10.5 102320 87
2004-11-23 06:57:16 51°13.618 2°56.06 5.2 210 10.5 102320 87
2004-11-23 06:57:20 51°13.618 2°56.06 4 181 10.5 102320 87
2004-11-23 06:57:26 51°13.618 2°56.06 5.7 204 10.5 102320 87
2004-11-23 06:57:31 51°13.618 2°56.06 4.7 191 10.5 102320 87
2004-11-23 06:57:36 51°13.618 2°56.06 5.4 208 10.5 102320 87
2004-11-23 06:57:41 51°13.618 2°56.06 5.8 201 10.5 102320 87
2004-11-23 06:57:46 51°13.617 2°56.06 5.8 204 10.5 102320 87
2004-11-23 06:57:51 51°13.617 2°56.06 6.4 225 10.5 102320 87
2004-11-23 06:57:56 51°13.617 2°56.06 5.3 199 10.5 102320 87
2004-11-23 06:58:01 51°13.617 2°56.06 5.4 201 10.5 102320 87
2004-11-23 06:58:06 51°13.617 2°56.06 3.5 190 10.5 102320 87
2004-11-23 06:58:11 51°13.617 2°56.06 5 188 10.5 102320 87
2004-11-23 06:58:16 51°13.617 2°56.06 6.5 204 10.5 102320 87
2004-11-23 06:58:21 51°13.617 2°56.06 8.2 203 10.5 102320 87
2004-11-23 06:58:26 51°13.617 2°56.06 3.9 209 10.5 102320 87
2004-11-23 06:58:30 51°13.617 2°56.06 5 210 10.5 102320 87
2004-11-23 06:58:36 51°13.617 2°56.06 6.8 191 10.5 102320 87
2004-11-23 06:58:41 51°13.617 2°56.06 4.5 200 10.5 102320 87
2004-11-23 06:58:46 51°13.617 2°56.06 5 197 10.5 102320 87
2004-11-23 06:58:51 51°13.618 2°56.06 3.7 200 10.5 102320 87
2004-11-23 06:58:56 51°13.618 2°56.06 4.5 206 10.5 102320 87
2004-11-23 06:59:01 51°13.618 2°56.06 4.5 210 10.5 102320 87
2004-11-23 06:59:06 51°13.618 2°56.06 7.6 202 10.5 102320 87
2004-11-23 06:59:10 51°13.618 2°56.06 5.2 219 10.5 102320 87
2004-11-23 06:59:16 51°13.618 2°56.06 4.8 190 10.5 102320 87
2004-11-23 06:59:20 51°13.618 2°56.06 4.6 201 10.5 102320 87
2004-11-23 06:59:26 51°13.618 2°56.06 3.4 186 10.5 102320 87
2004-11-23 06:59:29 51°13.618 2°56.06 4.1 183 10.5 102320 87
2004-11-23 06:59:36 51°13.618 2°56.06 4 219 10.5 102320 87
2004-11-23 06:59:41 51°13.618 2°56.06 5 203 10.5 102320 87
2004-11-23 06:59:46 51°13.618 2°56.06 5.2 205 10.5 102320 87
2004-11-23 06:59:51 51°13.618 2°56.06 4.9 201 10.5 102320 87
2004-11-23 06:59:56 51°13.618 2°56.06 7.2 211 10.5 102320 87
2004-11-23 07:00:01 51°13.618 2°56.06 6 205 10.5 102320 87
2004-11-23 07:00:05 51°13.618 2°56.06 5.1 207 10.5 102320 87
2004-11-23 07:00:10 51°13.618 2°56.06 4.9 211 10.5 102320 87
2004-11-23 07:00:16 51°13.618 2°56.06 4.4 195 10.5 102320 87
2004-11-23 07:00:21 51°13.619 2°56.06 4 190 10.5 102320 87
2004-11-23 07:00:25 51°13.619 2°56.06 6.7 206 10.5 102320 87
2004-11-23 07:00:30 51°13.619 2°56.06 5 214 10.5 102320 87
2004-11-23 07:00:36 51°13.619 2°56.06 6.3 201 10.5 102320 87
2004-11-23 07:00:40 51°13.619 2°56.06 5.3 209 10.5 102320 87
2004-11-23 07:00:45 51°13.619 2°56.06 5.8 205 10.5 102320 87
2004-11-23 07:00:51 51°13.619 2°56.06 6 208 10.5 102320 87
2004-11-23 07:00:56 51°13.619 2°56.06 5 205 10.5 102320 87
2004-11-23 07:01:01 51°13.619 2°56.06 6 208 10.5 102320 87
2004-11-23 07:01:06 51°13.619 2°56.06 4.5 184 10.5 102320 87
2004-11-23 07:01:11 51°13.619 2°56.06 4.5 200 10.5 102330 87
2004-11-23 07:01:16 51°13.619 2°56.06 4.2 196 10.5 102330 87
2004-11-23 07:01:20 51°13.619 2°56.06 4.9 201 10.5 102320 87
2004-11-23 07:01:26 51°13.619 2°56.06 3.6 207 10.5 102320 87
2004-11-23 07:01:31 51°13.619 2°56.06 3.8 199 10.5 102320 88
2004-11-23 07:01:36 51°13.619 2°56.06 5.9 217 10.5 102320 88
2004-11-23 07:01:40 51°13.619 2°56.06 6.1 228 10.5 102320 88
2004-11-23 07:01:46 51°13.619 2°56.06 4.5 191 10.5 102320 88
2004-11-23 07:01:51 51°13.619 2°56.06 4.1 202 10.5 102330 88
2004-11-23 07:01:56 51°13.619 2°56.06 4.2 194 10.5 102330 88
2004-11-23 07:02:01 51°13.619 2°56.06 4 202 10.5 102320 88
2004-11-23 07:02:06 51°13.619 2°56.06 4.9 200 10.5 102320 88
2004-11-23 07:02:11 51°13.619 2°56.06 3.9 181 10.5 102320 88
2004-11-23 07:02:16 51°13.619 2°56.06 4.9 188 10.5 102320 88
2004-11-23 07:02:20 51°13.619 2°56.06 6.9 214 10.5 102330 88
2004-11-23 07:02:26 51°13.619 2°56.06 4.4 204 10.5 102330 88
2004-11-23 07:02:31 51°13.619 2°56.06 3.3 186 10.5 102320 88
2004-11-23 07:02:36 51°13.619 2°56.06 4.1 188 10.5 102320 88
2004-11-23 07:02:41 51°13.619 2°56.06 3.3 192 10.5 102320 88
2004-11-23 07:02:45 51°13.619 2°56.06 3.6 217 10.5 102320 88
2004-11-23 07:02:49 51°13.62 2°56.06 4.3 204 10.5 102320 88
2004-11-23 07:02:56 51°13.62 2°56.059 4.6 210 10.5 102320 88
2004-11-23 07:03:00 51°13.62 2°56.059 4.2 199 10.5 102320 88
2004-11-23 07:03:06 51°13.62 2°56.059 5.3 213 10.5 102320 88
2004-11-23 07:03:11 51°13.62 2°56.059 5.5 195 10.5 102320 88
2004-11-23 07:03:16 51°13.62 2°56.059 3.9 212 10.5 102320 88
2004-11-23 07:03:21 51°13.62 2°56.059 4.4 210 10.5 102330 88
2004-11-23 07:03:24 51°13.62 2°56.059 4.2 215 10.5 102330 88
2004-11-23 07:03:31 51°13.62 2°56.059 4.8 214 10.5 102330 88
2004-11-23 07:03:36 51°13.62 2°56.059 4.3 198 10.5 102330 88
2004-11-23 07:03:41 51°13.62 2°56.059 3.9 202 10.5 102320 88
2004-11-23 07:03:45 51°13.62 2°56.059 4.9 193 10.5 102320 88
2004-11-23 07:03:51 51°13.62 2°56.059 4.1 185 10.5 102330 88
2004-11-23 07:03:56 51°13.62 2°56.059 4.2 196 10.5 102330 88
2004-11-23 07:04:01 51°13.62 2°56.059 4.6 199 10.5 102320 88
2004-11-23 07:04:05 51°13.62 2°56.059 4.2 203 10.5 102320 88
2004-11-23 07:04:11 51°13.62 2°56.059 3.4 192 10.5 102330 88
2004-11-23 07:04:16 51°13.62 2°56.059 4.8 212 10.5 102330 88
2004-11-23 07:04:21 51°13.62 2°56.059 5.2 220 10.5 102330 88
2004-11-23 07:04:26 51°13.62 2°56.059 6.4 204 10.5 102330 88
2004-11-23 07:04:31 51°13.62 2°56.059 6.2 208 10.5 102330 88
2004-11-23 07:04:36 51°13.62 2°56.06 4.4 188 10.5 102330 88
2004-11-23 07:04:40 51°13.62 2°56.06 3.1 185 10.5 102320 88
2004-11-23 07:04:46 51°13.62 2°56.06 4.1 212 10.5 102320 88
2004-11-23 07:04:49 51°13.62 2°56.06 3.5 200 10.4 102330 88
2004-11-23 07:04:56 51°13.62 2°56.06 3.1 204 10.4 102330 88
2004-11-23 07:05:01 51°13.62 2°56.06 3.4 180 10.5 102330 88
2004-11-23 07:05:06 51°13.62 2°56.06 3.5 190 10.5 102330 88
2004-11-23 07:05:11 51°13.62 2°56.06 3.4 182 10.4 102330 88
2004-11-23 07:05:16 51°13.62 2°56.06 5 207 10.4 102330 88
2004-11-23 07:05:21 51°13.62 2°56.06 4.8 211 10.4 102320 88
2004-11-23 07:05:26 51°13.62 2°56.06 4.5 201 10.4 102320 88
2004-11-23 07:05:31 51°13.62 2°56.06 2.7 191 10.4 102330 88
2004-11-23 07:05:36 51°13.62 2°56.06 4 217 10.4 102330 88
2004-11-23 07:05:40 51°13.619 2°56.06 4.4 211 10.5 102330 88
2004-11-23 07:05:46 51°13.619 2°56.06 5.6 208 10.5 102330 88
2004-11-23 07:05:49 51°13.619 2°56.06 5 204 10.4 102330 88
2004-11-23 07:05:56 51°13.619 2°56.06 4.7 217 10.4 102330 88
2004-11-23 07:06:00 51°13.619 2°56.06 4.1 217 10.4 102320 88
2004-11-23 07:06:05 51°13.619 2°56.06 4.6 214 10.4 102320 88
2004-11-23 07:06:10 51°13.619 2°56.06 5.3 207 10.4 102330 88
2004-11-23 07:06:16 51°13.619 2°56.06 4.5 201 10.4 102330 88
2004-11-23 07:06:20 51°13.619 2°56.06 4.9 205 10.4 102330 88
2004-11-23 07:06:26 51°13.619 2°56.06 4.5 200 10.4 102330 88
2004-11-23 07:06:31 51°13.619 2°56.06 4.7 206 10.4 102330 88
2004-11-23 07:06:36 51°13.618 2°56.06 4.5 202 10.4 102330 88
2004-11-23 07:06:40 51°13.618 2°56.06 5.8 203 10.4 102330 88
2004-11-23 07:06:46 51°13.618 2°56.06 3.3 174 10.4 102330 88
2004-11-23 07:06:51 51°13.618 2°56.06 2.5 201 10.4 102330 88
2004-11-23 07:06:56 51°13.618 2°56.06 3.4 194 10.4 102330 88
2004-11-23 07:07:01 51°13.618 2°56.06 5.5 210 10.4 102330 88
2004-11-23 07:07:06 51°13.618 2°56.06 4.8 200 10.4 102330 88
2004-11-23 07:07:09 51°13.618 2°56.06 4.4 183 10.4 102330 88
2004-11-23 07:07:16 51°13.618 2°56.06 4.6 207 10.4 102330 88
2004-11-23 07:07:21 51°13.618 2°56.06 5.4 188 10.4 102330 88
2004-11-23 07:07:25 51°13.618 2°56.06 4.4 183 10.4 102330 88
2004-11-23 07:07:31 51°13.618 2°56.06 5.4 205 10.4 102330 88
2004-11-23 07:07:36 51°13.618 2°56.06 4.4 205 10.4 102330 88
2004-11-23 07:07:40 51°13.618 2°56.06 3.5 189 10.4 102330 89
2004-11-23 07:07:46 51°13.618 2°56.06 3.7 191 10.4 102330 89
2004-11-23 07:07:51 51°13.618 2°56.06 3 194 10.5 102330 89
2004-11-23 07:07:56 51°13.618 2°56.06 3.4 200 10.5 102330 89
2004-11-23 07:08:01 51°13.618 2°56.06 3.6 189 10.5 102330 89
2004-11-23 07:08:06 51°13.618 2°56.06 3.7 205 10.5 102330 89
2004-11-23 07:08:11 51°13.618 2°56.06 3.1 197 10.5 102330 89
2004-11-23 07:08:16 51°13.618 2°56.06 4.8 206 10.5 102330 89
2004-11-23 07:08:21 51°13.618 2°56.06 5.8 210 10.5 102330 89
2004-11-23 07:08:26 51°13.618 2°56.06 6.6 207 10.5 102330 89
2004-11-23 07:08:31 51°13.618 2°56.06 5.3 203 10.5 102330 89
2004-11-23 07:08:36 51°13.618 2°56.06 3.9 197 10.5 102330 89
2004-11-23 07:08:41 51°13.618 2°56.06 3.6 174 10.5 102330 89
2004-11-23 07:08:46 51°13.618 2°56.06 3.1 195 10.5 102330 89
2004-11-23 07:08:51 51°13.618 2°56.06 4.2 214 10.5 102330 89
2004-11-23 07:08:56 51°13.618 2°56.06 3.2 203 10.5 102330 89
2004-11-23 07:09:01 51°13.618 2°56.059 3.7 206 10.5 102330 89
2004-11-23 07:09:05 51°13.618 2°56.059 2.9 183 10.5 102330 89
2004-11-23 07:09:11 51°13.619 2°56.059 3.4 193 10.5 102330 89
2004-11-23 07:09:16 51°13.619 2°56.059 3.4 177 10.5 102330 89
2004-11-23 07:09:20 51°13.619 2°56.059 3.6 214 10.5 102330 89
2004-11-23 07:09:26 51°13.619 2°56.059 3.3 201 10.5 102330 89
2004-11-23 07:09:31 51°13.619 2°56.059 4.4 199 10.5 102330 89
2004-11-23 07:09:36 51°13.618 2°56.059 4.6 215 10.5 102330 89
2004-11-23 07:09:41 51°13.618 2°56.059 4.3 216 10.5 102330 89
2004-11-23 07:09:46 51°13.618 2°56.059 3.7 199 10.5 102330 89
2004-11-23 07:09:49 51°13.618 2°56.06 4.4 209 10.5 102330 89
2004-11-23 07:09:56 51°13.618 2°56.06 4 202 10.5 102330 89
2004-11-23 07:10:00 51°13.618 2°56.06 4.5 194 10.5 102330 89
2004-11-23 07:10:06 51°13.618 2°56.06 4.5 216 10.5 102330 89
2004-11-23 07:10:11 51°13.618 2°56.06 4.6 212 10.5 102330 89
2004-11-23 07:10:16 51°13.618 2°56.06 3.1 183 10.5 102330 89
2004-11-23 07:10:21 51°13.618 2°56.06 3.5 204 10.5 102330 89
2004-11-23 07:10:26 51°13.618 2°56.06 4.8 209 10.5 102330 89
2004-11-23 07:10:31 51°13.618 2°56.06 6.3 223 10.5 102330 89
2004-11-23 07:10:36 51°13.618 2°56.06 3.7 177 10.5 102330 89
2004-11-23 07:10:41 51°13.618 2°56.06 4 175 10.5 102330 89
2004-11-23 07:10:46 51°13.618 2°56.06 6.3 208 10.5 102330 89
2004-11-23 07:10:49 51°13.618 2°56.06 4.9 200 10.5 102330 89
2004-11-23 07:10:56 51°13.618 2°56.06 5.8 213 10.5 102330 89
2004-11-23 07:11:00 51°13.618 2°56.06 5.1 193 10.5 102330 89
2004-11-23 07:11:06 51°13.618 2°56.06 5.1 206 10.5 102330 89
2004-11-23 07:11:11 51°13.618 2°56.06 3.7 197 10.5 102330 89
2004-11-23 07:11:16 51°13.618 2°56.06 3.8 188 10.5 102330 89
2004-11-23 07:11:20 51°13.618 2°56.06 4.9 208 10.5 102340 89
2004-11-23 07:11:26 51°13.618 2°56.06 6.5 211 10.5 102340 89
2004-11-23 07:11:31 51°13.618 2°56.06 6.9 215 10.6 102330 89
2004-11-23 07:11:36 51°13.618 2°56.06 6.9 214 10.6 102330 89
2004-11-23 07:11:40 51°13.618 2°56.06 7.1 211 10.5 102330 89
2004-11-23 07:11:46 51°13.619 2°56.06 5.3 185 10.5 102330 89
2004-11-23 07:11:51 51°13.619 2°56.06 5.6 199 10.5 102330 89
2004-11-23 07:11:56 51°13.619 2°56.06 4.2 208 10.5 102330 89
2004-11-23 07:12:00 51°13.619 2°56.06 5 202 10.5 102330 89
2004-11-23 07:12:06 51°13.619 2°56.06 4.5 206 10.5 102330 89
2004-11-23 07:12:11 51°13.619 2°56.06 3.9 198 10.5 102340 89
2004-11-23 07:12:16 51°13.619 2°56.06 4.4 200 10.5 102340 89
2004-11-23 07:12:21 51°13.619 2°56.06 5 212 10.6 102340 89
2004-11-23 07:12:26 51°13.619 2°56.06 5.8 208 10.6 102340 89
2004-11-23 07:12:31 51°13.619 2°56.06 6 207 10.5 102330 89
2004-11-23 07:12:36 51°13.619 2°56.06 5.9 202 10.5 102330 89
2004-11-23 07:12:40 51°13.619 2°56.06 4.1 199 10.6 102330 89
2004-11-23 07:12:46 51°13.619 2°56.06 4.4 203 10.6 102330 89
2004-11-23 07:12:51 51°13.619 2°56.06 4.6 217 10.6 102340 89
2004-11-23 07:12:56 51°13.619 2°56.06 3 189 10.6 102340 89
2004-11-23 07:13:00 51°13.619 2°56.06 3.5 201 10.6 102340 89
2004-11-23 07:13:06 51°13.619 2°56.06 4.9 183 10.6 102340 89
2004-11-23 07:13:11 51°13.619 2°56.06 2.8 197 10.6 102340 89
2004-11-23 07:13:16 51°13.619 2°56.06 5.5 214 10.6 102340 89
2004-11-23 07:13:20 51°13.619 2°56.06 4.4 207 10.6 102340 89
2004-11-23 07:13:25 51°13.619 2°56.06 3.9 213 10.6 102340 89
2004-11-23 07:13:31 51°13.619 2°56.06 4 204 10.6 102340 89
2004-11-23 07:13:36 51°13.619 2°56.06 4 196 10.6 102340 89
2004-11-23 07:13:40 51°13.619 2°56.06 3.2 205 10.5 102340 89
2004-11-23 07:13:46 51°13.619 2°56.06 3.2 182 10.5 102340 89
2004-11-23 07:13:49 51°13.619 2°56.06 2.7 212 10.6 102330 89
2004-11-23 07:13:56 51°13.619 2°56.06 3.8 205 10.6 102330 89
2004-11-23 07:14:00 51°13.619 2°56.06 4 212 10.5 102340 89
2004-11-23 07:14:06 51°13.619 2°56.06 4.2 195 10.5 102340 89
2004-11-23 07:14:11 51°13.62 2°56.06 2.9 190 10.5 102340 89
2004-11-23 07:14:16 51°13.62 2°56.06 2.9 205 10.5 102340 89
2004-11-23 07:14:20 51°13.62 2°56.06 3.6 199 10.5 102340 89
2004-11-23 07:14:26 51°13.62 2°56.06 3.4 215 10.5 102340 89
2004-11-23 07:14:30 51°13.62 2°56.06 5 208 10.5 102330 89
2004-11-23 07:14:36 51°13.62 2°56.06 5.2 197 10.5 102330 89
2004-11-23 07:14:41 51°13.62 2°56.06 4.3 188 10.5 102340 89
2004-11-23 07:14:46 51°13.619 2°56.06 4.9 221 10.5 102340 89
2004-11-23 07:14:51 51°13.619 2°56.06 4 193 10.5 102340 89
2004-11-23 07:14:56 51°13.619 2°56.059 3.8 204 10.5 102340 89
2004-11-23 07:15:01 51°13.619 2°56.059 4 196 10.5 102340 89
2004-11-23 07:15:06 51°13.619 2°56.059 4.8 211 10.5 102340 89
2004-11-23 07:15:09 51°13.619 2°56.059 3.3 197 10.5 102340 89
2004-11-23 07:15:16 51°13.619 2°56.059 3.4 212 10.5 102340 89
2004-11-23 07:15:21 51°13.619 2°56.059 3.7 211 10.5 102340 89
2004-11-23 07:15:26 51°13.619 2°56.059 3.5 211 10.5 102340 89
2004-11-23 07:15:29 51°13.619 2°56.059 3.2 204 10.5 102340 89
2004-11-23 07:15:36 51°13.619 2°56.059 3.4 200 10.5 102340 89
2004-11-23 07:15:40 51°13.619 2°56.059 4.4 211 10.5 102340 89
2004-11-23 07:15:45 51°13.619 2°56.059 5.3 202 10.5 102340 89
2004-11-23 07:15:50 51°13.619 2°56.059 4.5 202 10.5 102340 89
2004-11-23 07:15:56 51°13.617 2°56.059 3.1 185 10.5 102340 89
2004-11-23 07:16:00 51°13.616 2°56.058 3.5 202 10.5 102340 89
2004-11-23 07:16:05 51°13.615 2°56.058 4.1 195 10.5 102340 89
2004-11-23 07:16:11 51°13.615 2°56.058 3.5 193 10.5 102340 89
2004-11-23 07:16:16 51°13.615 2°56.059 5.3 215 10.5 102340 89
2004-11-23 07:16:21 51°13.615 2°56.059 4.4 218 10.5 102340 89
2004-11-23 07:16:25 51°13.615 2°56.059 3.5 203 10.5 102340 89
2004-11-23 07:16:31 51°13.616 2°56.059 3.6 196 10.5 102340 89
2004-11-23 07:16:36 51°13.616 2°56.059 3.8 205 10.5 102340 89
2004-11-23 07:16:40 51°13.616 2°56.059 2.8 208 10.5 102340 89
2004-11-23 07:16:46 51°13.616 2°56.059 4.6 208 10.5 102340 89
2004-11-23 07:16:51 51°13.616 2°56.059 3.4 200 10.5 102340 89
2004-11-23 07:16:56 51°13.616 2°56.059 4.2 208 10.5 102340 89
2004-11-23 07:17:01 51°13.616 2°56.059 3.9 200 10.5 102340 89
2004-11-23 07:17:06 51°13.617 2°56.059 4.9 216 10.5 102340 89
2004-11-23 07:17:09 51°13.617 2°56.059 4.5 200 10.5 102350 89
2004-11-23 07:17:16 51°13.617 2°56.059 3.8 213 10.5 102350 89
2004-11-23 07:17:20 51°13.617 2°56.06 4.6 182 10.5 102350 89
2004-11-23 07:17:26 51°13.617 2°56.06 4 202 10.5 102350 89
2004-11-23 07:17:31 51°13.617 2°56.06 3.9 192 10.5 102340 89
2004-11-23 07:17:36 51°13.618 2°56.059 3.9 206 10.5 102340 89
2004-11-23 07:17:40 51°13.618 2°56.059 4.3 207 10.5 102350 89
2004-11-23 07:17:45 51°13.618 2°56.059 2.5 196 10.5 102350 89
2004-11-23 07:17:49 51°13.618 2°56.059 5 203 10.5 102350 89
2004-11-23 07:17:56 51°13.618 2°56.059 5.2 220 10.5 102350 89
2004-11-23 07:18:01 51°13.618 2°56.059 4.9 217 10.5 102350 89
2004-11-23 07:18:06 51°13.618 2°56.059 4.6 211 10.5 102350 89
2004-11-23 07:18:09 51°13.619 2°56.059 4.9 208 10.5 102350 89
2004-11-23 07:18:16 51°13.619 2°56.059 4.9 201 10.5 102350 89
2004-11-23 07:18:20 51°13.619 2°56.059 4.5 205 10.5 102350 89
2004-11-23 07:18:26 51°13.619 2°56.059 3.2 193 10.5 102350 89
2004-11-23 07:18:29 51°13.619 2°56.059 2.8 188 10.5 102350 89
2004-11-23 07:18:36 51°13.619 2°56.06 3.1 197 10.5 102350 89
2004-11-23 07:18:40 51°13.619 2°56.06 3.9 199 10.5 102350 89
2004-11-23 07:18:46 51°13.618 2°56.06 2.9 218 10.5 102350 89
2004-11-23 07:18:51 51°13.618 2°56.06 3.2 195 10.5 102350 89
2004-11-23 07:18:56 51°13.618 2°56.06 3.6 227 10.5 102350 89
2004-11-23 07:19:01 51°13.618 2°56.06 3.8 224 10.5 102350 89
2004-11-23 07:19:06 51°13.618 2°56.06 3 200 10.5 102350 89
2004-11-23 07:19:11 51°13.618 2°56.06 2.8 209 10.5 102350 89
2004-11-23 07:19:16 51°13.618 2°56.06 3.3 196 10.5 102350 89
2004-11-23 07:19:20 51°13.618 2°56.06 4.8 204 10.4 102350 89
2004-11-23 07:19:26 51°13.619 2°56.06 2.7 212 10.4 102350 89
2004-11-23 07:19:31 51°13.619 2°56.06 3.5 218 10.4 102350 89
2004-11-23 07:19:36 51°13.619 2°56.06 2.3 205 10.4 102350 89
2004-11-23 07:19:41 51°13.619 2°56.06 2.6 214 10.4 102350 89
2004-11-23 07:19:45 51°13.619 2°56.06 1.9 196 10.4 102350 89
2004-11-23 07:19:51 51°13.619 2°56.06 3 206 10.4 102350 89
2004-11-23 07:19:56 51°13.619 2°56.06 2.9 206 10.4 102350 89
2004-11-23 07:20:01 51°13.619 2°56.06 2.9 200 10.4 102350 89
2004-11-23 07:20:06 51°13.619 2°56.06 4.4 201 10.4 102350 89
2004-11-23 07:20:11 51°13.619 2°56.06 4.2 196 10.4 102350 89
2004-11-23 07:20:16 51°13.619 2°56.06 2.3 194 10.4 102350 89
2004-11-23 07:20:21 51°13.619 2°56.06 2.5 198 10.4 102350 89
2004-11-23 07:20:25 51°13.619 2°56.06 3.2 194 10.4 102350 89
2004-11-23 07:20:31 51°13.619 2°56.06 3.2 198 10.4 102350 89
2004-11-23 07:20:36 51°13.619 2°56.06 2.1 212 10.4 102350 89
2004-11-23 07:20:41 51°13.619 2°56.06 2.1 185 10.4 102350 89
2004-11-23 07:20:46 51°13.619 2°56.06 2.7 201 10.4 102350 89
2004-11-23 07:20:49 51°13.619 2°56.06 2.4 205 10.4 102350 89
2004-11-23 07:20:56 51°13.619 2°56.06 4.2 207 10.4 102350 89
2004-11-23 07:21:01 51°13.619 2°56.06 3.8 213 10.4 102350 89
2004-11-23 07:21:06 51°13.619 2°56.06 4.4 203 10.4 102350 89
2004-11-23 07:21:11 51°13.619 2°56.06 3.3 186 10.4 102360 89
2004-11-23 07:21:16 51°13.619 2°56.06 3.9 219 10.4 102360 89
2004-11-23 07:21:21 51°13.619 2°56.06 4.1 211 10.4 102360 89
2004-11-23 07:21:25 51°13.619 2°56.06 3.1 194 10.4 102360 89
2004-11-23 07:21:31 51°13.619 2°56.06 3.2 201 10.4 102360 89
2004-11-23 07:21:36 51°13.619 2°56.06 3.2 178 10.4 102360 89
2004-11-23 07:21:40 51°13.619 2°56.06 2.4 190 10.4 102360 89
2004-11-23 07:21:46 51°13.619 2°56.06 2 195 10.4 102360 89
2004-11-23 07:21:49 51°13.619 2°56.06 3.2 209 10.4 102360 89
2004-11-23 07:21:56 51°13.619 2°56.06 2.4 211 10.4 102360 89
2004-11-23 07:22:01 51°13.618 2°56.06 2.9 199 10.4 102360 89
2004-11-23 07:22:04 51°13.618 2°56.06 3.5 186 10.4 102360 89
2004-11-23 07:22:10 51°13.618 2°56.06 5.1 199 10.4 102360 89
2004-11-23 07:22:16 51°13.618 2°56.06 3.5 212 10.4 102360 89
2004-11-23 07:22:21 51°13.618 2°56.06 4.6 203 10.4 102360 89
2004-11-23 07:22:26 51°13.618 2°56.06 4.2 192 10.4 102360 89
2004-11-23 07:22:31 51°13.618 2°56.06 3.6 202 10.4 102360 89
2004-11-23 07:22:36 51°13.618 2°56.06 2.3 195 10.4 102360 89
2004-11-23 07:22:40 51°13.618 2°56.06 3.9 205 10.4 102360 90
2004-11-23 07:22:45 51°13.618 2°56.06 3.7 193 10.4 102360 90
2004-11-23 07:22:49 51°13.618 2°56.06 4.3 207 10.4 102360 90
2004-11-23 07:22:56 51°13.618 2°56.06 3.7 202 10.4 102360 90
2004-11-23 07:23:01 51°13.618 2°56.06 4.5 219 10.4 102360 90
2004-11-23 07:23:06 51°13.618 2°56.06 3.5 198 10.4 102360 90
2004-11-23 07:23:08 51°13.618 2°56.06 2.8 192 10.4 102360 90
2004-11-23 07:23:16 51°13.618 2°56.06 5 197 10.4 102360 90
2004-11-23 07:23:20 51°13.618 2°56.061 3.3 196 10.4 102360 90
2004-11-23 07:23:24 51°13.618 2°56.061 4.6 206 10.4 102360 90
2004-11-23 07:23:31 51°13.618 2°56.061 5.6 213 10.4 102360 90
2004-11-23 07:23:36 51°13.618 2°56.06 5 205 10.4 102360 90
2004-11-23 07:23:41 51°13.618 2°56.06 3.1 197 10.4 102360 90
2004-11-23 07:23:45 51°13.618 2°56.06 2.8 214 10.4 102360 90
2004-11-23 07:23:51 51°13.617 2°56.06 2.9 191 10.4 102360 90
2004-11-23 07:23:56 51°13.617 2°56.06 2.7 187 10.4 102360 90
2004-11-23 07:24:01 51°13.617 2°56.06 3.2 205 10.4 102360 90
2004-11-23 07:24:05 51°13.618 2°56.06 2.9 190 10.4 102360 90
2004-11-23 07:24:11 51°13.618 2°56.059 2.9 192 10.4 102360 90
2004-11-23 07:24:16 51°13.618 2°56.059 2.5 211 10.4 102360 90
2004-11-23 07:24:20 51°13.618 2°56.059 2.4 198 10.4 102360 90
2004-11-23 07:24:24 51°13.618 2°56.06 4 208 10.4 102360 90
2004-11-23 07:24:31 51°13.618 2°56.06 3.6 201 10.4 102370 90
2004-11-23 07:24:36 51°13.618 2°56.06 5.8 212 10.4 102370 90
2004-11-23 07:24:41 51°13.618 2°56.06 4.5 200 10.4 102360 90
2004-11-23 07:24:45 51°13.618 2°56.06 4 209 10.4 102360 90
2004-11-23 07:24:51 51°13.618 2°56.06 5.7 219 10.4 102360 90
2004-11-23 07:24:56 51°13.618 2°56.06 4 189 10.4 102360 90
2004-11-23 07:25:00 51°13.618 2°56.06 5.8 213 10.4 102360 90
2004-11-23 07:25:05 51°13.618 2°56.061 3.4 188 10.4 102360 90
2004-11-23 07:25:11 51°13.618 2°56.061 3.2 192 10.4 102360 90
2004-11-23 07:25:16 51°13.619 2°56.061 4.6 218 10.4 102360 90
2004-11-23 07:25:20 51°13.619 2°56.061 5.1 205 10.4 102360 90
2004-11-23 07:25:26 51°13.619 2°56.061 5.5 208 10.4 102360 90
2004-11-23 07:25:30 51°13.619 2°56.062 4.3 195 10.4 102360 90
2004-11-23 07:25:36 51°13.62 2°56.062 2.6 196 10.4 102360 90
2004-11-23 07:25:41 51°13.62 2°56.062 2.7 189 10.4 102360 90
2004-11-23 07:25:46 51°13.62 2°56.063 2.9 192 10.4 102360 90
2004-11-23 07:25:51 51°13.62 2°56.063 3.1 194 10.4 102360 90
2004-11-23 07:25:56 51°13.62 2°56.063 4.2 195 10.4 102360 90
2004-11-23 07:26:00 51°13.62 2°56.063 3.2 190 10.4 102360 90
2004-11-23 07:26:06 51°13.62 2°56.063 3.1 188 10.4 102360 90
2004-11-23 07:26:11 51°13.621 2°56.062 3.5 203 10.4 102370 90
2004-11-23 07:26:16 51°13.621 2°56.062 5.8 221 10.4 102370 90
2004-11-23 07:26:20 51°13.622 2°56.062 5.7 210 10.4 102360 90
2004-11-23 07:26:24 51°13.622 2°56.062 3.5 188 10.4 102360 90
2004-11-23 07:26:31 51°13.622 2°56.061 2.8 190 10.4 102370 90
2004-11-23 07:26:36 51°13.622 2°56.061 2.6 168 10.4 102370 90
2004-11-23 07:26:40 51°13.622 2°56.061 2.6 171 10.4 102370 90
2004-11-23 07:26:45 51°13.622 2°56.061 5 197 10.4 102370 90
2004-11-23 07:26:50 51°13.622 2°56.061 4.3 195 10.4 102360 90
2004-11-23 07:26:56 51°13.621 2°56.061 6.6 200 10.4 102360 90
2004-11-23 07:27:00 51°13.621 2°56.061 4.7 202 10.4 102370 90
2004-11-23 07:27:06 51°13.621 2°56.061 4.8 198 10.4 102370 90
2004-11-23 07:27:10 51°13.621 2°56.061 4.7 190 10.4 102360 90
2004-11-23 07:27:16 51°13.621 2°56.061 3.1 199 10.4 102360 90
2004-11-23 07:27:21 51°13.621 2°56.061 3.2 180 10.4 102370 90
2004-11-23 07:27:26 51°13.621 2°56.061 2.7 179 10.4 102370 90
2004-11-23 07:27:30 51°13.621 2°56.061 3.2 204 10.4 102370 90
2004-11-23 07:27:36 51°13.621 2°56.061 3.4 202 10.4 102370 90
2004-11-23 07:27:41 51°13.621 2°56.061 4.4 193 10.4 102370 90
2004-11-23 07:27:45 51°13.62 2°56.061 3.6 185 10.4 102370 90
2004-11-23 07:27:50 51°13.62 2°56.061 3 187 10.4 102360 90
2004-11-23 07:27:56 51°13.62 2°56.061 4.1 201 10.4 102360 90
2004-11-23 07:28:00 51°13.62 2°56.061 3.7 180 10.4 102370 90
2004-11-23 07:28:06 51°13.62 2°56.061 4.8 217 10.4 102370 90
2004-11-23 07:28:10 51°13.62 2°56.061 4.1 201 10.4 102370 90
2004-11-23 07:28:16 51°13.62 2°56.061 6.1 205 10.4 102370 90
2004-11-23 07:28:21 51°13.62 2°56.061 3.8 200 10.4 102360 90
2004-11-23 07:28:26 51°13.619 2°56.061 3.6 206 10.4 102360 90
2004-11-23 07:28:31 51°13.619 2°56.061 4.4 206 10.4 102370 90
2004-11-23 07:28:36 51°13.619 2°56.061 3.7 213 10.4 102370 90
2004-11-23 07:28:40 51°13.619 2°56.061 4.1 209 10.4 102370 90
2004-11-23 07:28:46 51°13.619 2°56.061 5.3 209 10.4 102370 90
2004-11-23 07:28:49 51°13.619 2°56.061 6.2 211 10.4 102370 90
2004-11-23 07:28:56 51°13.619 2°56.061 5 210 10.4 102370 90
2004-11-23 07:29:00 51°13.619 2°56.061 4.5 212 10.4 102370 90
2004-11-23 07:29:06 51°13.618 2°56.061 3.8 206 10.4 102370 90
2004-11-23 07:29:08 51°13.618 2°56.061 3.9 197 10.4 102370 90
2004-11-23 07:29:16 51°13.618 2°56.061 3.1 195 10.4 102370 90
2004-11-23 07:29:21 51°13.618 2°56.061 3.6 211 10.4 102370 90
2004-11-23 07:29:25 51°13.618 2°56.061 3.5 204 10.4 102370 90
2004-11-23 07:29:31 51°13.618 2°56.061 3.9 195 10.4 102370 90
2004-11-23 07:29:36 51°13.618 2°56.061 3.8 221 10.4 102370 90
2004-11-23 07:29:41 51°13.617 2°56.061 3.7 196 10.4 102370 90
2004-11-23 07:29:46 51°13.617 2°56.061 3.1 198 10.4 102370 90
2004-11-23 07:29:49 51°13.617 2°56.061 3.1 203 10.4 102370 90
2004-11-23 07:29:56 51°13.617 2°56.061 4 200 10.4 102370 90
2004-11-23 07:30:00 51°13.617 2°56.061 3.9 203 10.4 102370 90
2004-11-23 07:30:06 51°13.617 2°56.061 3.4 208 10.4 102370 90
2004-11-23 07:30:09 51°13.617 2°56.061 2.9 190 10.4 102370 90
2004-11-23 07:30:16 51°13.617 2°56.061 4.1 203 10.4 102370 90
2004-11-23 07:30:20 51°13.617 2°56.061 3.3 199 10.4 102370 90
2004-11-23 07:30:38 51°13.617 2°56.061 3.8 199 10.4 102370 90
2004-11-23 07:30:42 51°13.617 2°56.061 3.8 199 10.4 102370 90
2004-11-23 07:30:46 51°13.617 2°56.061 3.8 199 10.4 102370 90
2004-11-23 07:30:52 51°13.617 2°56.061 3.8 199 -999 -999 -999
2004-11-23 07:30:57 51°13.617 2°56.061 -999 -999 -999 -999 -999
2004-11-23 07:31:01 51°13.617 2°56.061 -999 -999 -999 -999 -999
2004-11-23 07:31:36 51°13.617 2°56.06 3.7 201 10.4 -999 89
2004-11-23 07:31:40 51°13.617 2°56.06 3.4 204 10.4 -999 89
2004-11-23 07:31:46 51°13.617 2°56.06 4.7 200 10.4 -999 89
2004-11-23 07:31:48 51°13.617 2°56.06 4.5 197 10.4 -999 90
2004-11-23 07:31:56 51°13.617 2°56.06 3.6 194 10.4 102370 90
2004-11-23 07:32:00 51°13.618 2°56.06 2.8 187 10.4 102370 90
2004-11-23 07:32:06 51°13.618 2°56.061 3.4 206 10.4 102370 90
2004-11-23 07:32:11 51°13.618 2°56.061 3.2 201 10.4 102370 90
2004-11-23 07:32:16 51°13.618 2°56.061 4.8 192 10.4 102370 90
2004-11-23 07:32:20 51°13.618 2°56.061 4.5 183 10.4 102370 90
2004-11-23 07:32:25 51°13.618 2°56.061 5.1 195 10.4 102370 90
2004-11-23 07:32:29 51°13.618 2°56.061 3.5 195 10.4 102370 90
2004-11-23 07:32:36 51°13.618 2°56.061 4.5 203 10.4 102370 90
2004-11-23 07:32:40 51°13.619 2°56.061 4 198 10.4 102370 90
2004-11-23 07:32:44 51°13.619 2°56.061 3.4 197 10.4 102370 90
2004-11-23 07:32:49 51°13.619 2°56.061 3.3 194 10.4 102370 90
2004-11-23 07:32:56 51°13.62 2°56.061 5.7 207 10.4 102370 90
2004-11-23 07:33:01 51°13.62 2°56.061 5 213 10.4 102370 90
2004-11-23 07:33:06 51°13.621 2°56.061 6.7 218 10.4 102370 90
2004-11-23 07:33:10 51°13.621 2°56.061 5.2 213 10.4 102370 90
2004-11-23 07:33:15 51°13.621 2°56.061 3.8 201 10.4 102370 90
2004-11-23 07:33:20 51°13.621 2°56.061 3.6 200 10.4 102370 90
2004-11-23 07:33:25 51°13.621 2°56.061 4.3 194 10.4 102370 90
2004-11-23 07:33:29 51°13.621 2°56.061 5.3 217 10.4 102370 90
2004-11-23 07:33:36 51°13.621 2°56.061 4.5 209 10.4 102370 90
2004-11-23 07:33:39 51°13.621 2°56.061 5.7 212 10.4 102370 90
2004-11-23 07:33:46 51°13.621 2°56.061 3.7 202 10.4 102370 90
2004-11-23 07:33:50 51°13.621 2°56.061 5.4 214 10.4 102370 90
2004-11-23 07:33:56 51°13.621 2°56.061 4 208 10.4 102370 90
2004-11-23 07:34:01 51°13.621 2°56.061 4.7 202 10.4 102370 90
2004-11-23 07:34:06 51°13.621 2°56.061 3.1 194 10.4 102370 90
2004-11-23 07:34:10 51°13.621 2°56.061 3.6 198 10.4 102370 90
2004-11-23 07:34:16 51°13.621 2°56.06 2.4 194 10.4 102370 90
2004-11-23 07:34:20 51°13.62 2°56.06 2 207 10.4 102370 90
2004-11-23 07:34:26 51°13.62 2°56.06 3.7 204 10.4 102370 90
2004-11-23 07:34:28 51°13.62 2°56.06 4.6 201 10.4 102370 90
2004-11-23 07:34:36 51°13.62 2°56.06 4.7 202 10.4 102370 90
2004-11-23 07:34:40 51°13.619 2°56.06 4.1 216 10.4 102370 90
2004-11-23 07:34:46 51°13.619 2°56.06 3.6 200 10.4 102370 90
2004-11-23 07:34:50 51°13.619 2°56.06 4.7 206 10.4 102370 90
2004-11-23 07:34:56 51°13.619 2°56.06 2.9 189 10.4 102370 90
2004-11-23 07:35:01 51°13.619 2°56.06 3.1 211 10.4 102370 90
2004-11-23 07:35:05 51°13.619 2°56.06 3.1 199 10.4 102370 90
2004-11-23 07:35:08 51°13.619 2°56.06 5.3 213 10.4 102370 90
2004-11-23 07:35:16 51°13.619 2°56.06 4.2 214 10.4 102370 90
2004-11-23 07:35:21 51°13.62 2°56.06 5.1 208 10.4 102370 90
2004-11-23 07:35:24 51°13.62 2°56.06 4.9 213 10.4 102370 90
2004-11-23 07:35:30 51°13.62 2°56.06 5 202 10.4 102370 90
2004-11-23 07:35:36 51°13.62 2°56.06 5.1 198 10.4 102370 90
2004-11-23 07:35:40 51°13.62 2°56.061 4.4 195 10.4 102370 90
2004-11-23 07:35:46 51°13.62 2°56.061 4.9 196 10.4 102380 90
2004-11-23 07:35:48 51°13.62 2°56.061 5.9 206 10.4 102380 90
2004-11-23 07:36:02 51°13.62 2°56.06 6.2 202 10.4 102380 90
2004-11-23 07:36:08 51°13.62 2°56.061 3.8 201 10.4 102380 90
2004-11-23 07:36:11 51°13.619 2°56.061 4.4 216 10.4 102380 90
2004-11-23 07:36:17 51°13.619 2°56.06 3.6 208 10.4 102380 90
2004-11-23 07:36:22 51°13.619 2°56.06 5.9 211 10.4 102380 90
2004-11-23 07:36:26 51°13.619 2°56.06 3.8 195 10.4 102370 90
2004-11-23 07:36:36 51°13.618 2°56.06 4.3 213 10.4 102370 90
2004-11-23 07:36:41 51°13.618 2°56.06 3.5 207 10.4 102370 90
2004-11-23 07:36:44 51°13.618 2°56.06 3.9 217 10.4 102380 90
2004-11-23 07:36:50 51°13.618 2°56.06 3.5 199 10.4 102380 90
2004-11-23 07:36:53 51°13.618 2°56.06 2.3 196 10.4 102370 90
2004-11-23 07:37:00 51°13.618 2°56.06 6.4 210 10.4 102370 90
2004-11-23 07:37:04 51°13.618 2°56.06 5.6 197 10.4 102370 90
2004-11-23 07:37:10 51°13.619 2°56.06 3.7 197 10.4 102370 90
2004-11-23 07:37:15 51°13.619 2°56.06 3.6 189 10.4 102370 90
2004-11-23 07:37:20 51°13.619 2°56.06 3.5 189 10.4 102370 90
2004-11-23 07:37:26 51°13.619 2°56.06 3.7 185 10.4 102380 90
2004-11-23 07:37:28 51°13.619 2°56.06 7.1 218 10.4 102380 90
2004-11-23 07:37:36 51°13.619 2°56.06 5.7 201 10.4 102380 90
2004-11-23 07:37:40 51°13.619 2°56.06 6.1 204 10.4 102380 90
2004-11-23 07:37:46 51°13.619 2°56.06 7.1 183 10.4 102370 90
2004-11-23 07:37:50 51°13.618 2°56.06 5.3 186 10.4 102370 90
2004-11-23 07:37:56 51°13.617 2°56.06 5 200 10.4 102380 90
2004-11-23 07:38:00 51°13.617 2°56.06 5 204 10.4 102380 90
2004-11-23 07:38:15 51°13.617 2°56.06 3.2 212 10.4 102380 90
2004-11-23 07:38:20 51°13.617 2°56.06 4.7 193 10.5 102380 90
2004-11-23 07:38:23 51°13.617 2°56.06 4.1 206 10.5 102380 90
2004-11-23 07:38:30 51°13.617 2°56.06 4.2 194 10.5 102380 90
2004-11-23 07:38:34 51°13.617 2°56.059 3.5 188 10.5 102380 90
2004-11-23 07:38:40 51°13.617 2°56.06 3.5 191 10.5 102380 90
2004-11-23 07:38:43 51°13.617 2°56.06 4.1 194 10.5 102380 90
2004-11-23 07:38:50 51°13.617 2°56.06 3 191 10.5 102370 90
2004-11-23 07:38:53 51°13.617 2°56.06 4.4 207 10.5 102370 90
2004-11-23 07:39:06 51°13.617 2°56.06 4.5 205 10.5 102380 90
2004-11-23 07:39:12 51°13.617 2°56.06 4.1 200 10.5 102380 90
2004-11-23 07:39:16 51°13.617 2°56.059 3.3 179 10.5 102380 90
2004-11-23 07:39:22 51°13.617 2°56.059 3.5 199 10.5 102380 90
2004-11-23 07:39:26 51°13.617 2°56.059 4.7 207 10.5 102380 90
2004-11-23 07:39:32 51°13.617 2°56.059 4.6 199 10.5 102380 90
2004-11-23 07:39:37 51°13.616 2°56.059 4.6 206 10.5 102370 90
2004-11-23 07:39:42 51°13.617 2°56.059 3.4 201 10.5 102370 90
2004-11-23 07:39:46 51°13.617 2°56.059 4.1 203 10.5 102370 90
2004-11-23 07:39:52 51°13.617 2°56.059 3.5 192 10.5 102370 90
2004-11-23 07:39:56 51°13.617 2°56.06 3.5 202 10.5 102370 90
2004-11-23 07:40:02 51°13.617 2°56.06 4.6 208 10.5 102370 90
2004-11-23 07:40:06 51°13.618 2°56.06 3.3 222 10.5 102370 90
2004-11-23 07:40:12 51°13.618 2°56.06 5.2 215 10.5 102370 90
2004-11-23 07:40:15 51°13.618 2°56.06 2.9 225 10.5 102370 91
2004-11-23 07:40:20 51°13.618 2°56.06 2.7 186 10.5 102370 91
2004-11-23 07:40:34 51°13.617 2°56.06 3.1 186 10.5 102370 91
2004-11-23 07:40:40 51°13.617 2°56.06 3.5 193 10.5 102380 90
2004-11-23 07:40:45 51°13.617 2°56.06 5.1 209 10.5 102380 90
2004-11-23 07:40:50 51°13.617 2°56.06 4.7 201 10.6 102370 90
2004-11-23 07:40:54 51°13.617 2°56.06 4.4 196 10.6 102370 90
2004-11-23 07:41:00 51°13.617 2°56.06 3.2 186 10.6 102370 91
2004-11-23 07:41:12 51°13.617 2°56.06 4.5 199 10.6 102370 91
2004-11-23 07:41:20 51°13.617 2°56.06 4.2 194 10.5 102370 90
2004-11-23 07:41:22 51°13.617 2°56.06 3.8 194 10.5 102370 90
2004-11-23 07:41:34 51°13.617 2°56.06 3.8 209 10.5 102370 90
2004-11-23 07:41:39 51°13.617 2°56.06 3.8 191 10.6 102380 90
2004-11-23 07:41:45 51°13.617 2°56.061 2.9 191 10.6 102380 90
2004-11-23 07:41:50 51°13.617 2°56.061 3.1 194 10.5 102370 90
2004-11-23 07:41:54 51°13.617 2°56.061 7.1 205 10.5 102370 90
2004-11-23 07:42:00 51°13.617 2°56.061 4.1 190 10.6 102370 90
2004-11-23 07:42:05 51°13.618 2°56.061 3.7 189 10.6 102370 90
2004-11-23 07:42:10 51°13.618 2°56.061 5.2 205 10.6 102370 90
2004-11-23 07:42:14 51°13.618 2°56.061 4 192 10.6 102370 90
2004-11-23 07:42:18 51°13.618 2°56.061 3.7 207 10.6 102380 90
2004-11-23 07:42:24 51°13.617 2°56.061 3 186 10.6 102380 90
2004-11-23 07:42:28 51°13.617 2°56.061 3.3 186 10.6 102380 90
2004-11-23 07:42:32 51°13.617 2°56.061 3.5 174 10.6 102380 90
2004-11-23 07:42:50 51°13.617 2°56.061 4.6 205 10.6 102370 90
2004-11-23 07:42:54 51°13.617 2°56.061 5.1 192 10.6 102370 90
2004-11-23 07:43:00 51°13.617 2°56.061 4.1 198 10.6 102370 90
2004-11-23 07:43:05 51°13.617 2°56.061 3.6 198 10.6 102370 90
2004-11-23 07:43:10 51°13.617 2°56.061 3.8 194 10.6 102370 90
2004-11-23 07:43:16 51°13.618 2°56.061 4.8 177 10.6 102370 90
2004-11-23 07:43:20 51°13.618 2°56.061 7 185 10.6 102370 90
2004-11-23 07:43:26 51°13.618 2°56.061 8.5 173 10.6 102370 90
2004-11-23 07:43:28 51°13.618 2°56.061 4.6 201 10.6 102370 90
2004-11-23 07:43:36 51°13.618 2°56.061 5 207 10.6 102370 90
2004-11-23 07:43:40 51°13.618 2°56.061 3.3 210 10.6 102370 90
2004-11-23 07:43:46 51°13.618 2°56.061 3.2 189 10.6 102370 90
2004-11-23 07:43:50 51°13.618 2°56.061 5.3 185 10.6 102370 90
2004-11-23 07:43:56 51°13.618 2°56.061 5.5 189 10.6 102370 90
2004-11-23 07:44:00 51°13.618 2°56.061 5.6 172 10.6 102370 90
2004-11-23 07:44:06 51°13.618 2°56.061 4.2 212 10.6 102370 90
2004-11-23 07:44:10 51°13.618 2°56.061 5.6 205 10.6 102370 90
2004-11-23 07:44:16 51°13.618 2°56.061 5.6 213 10.6 102370 90
2004-11-23 07:44:17 51°13.618 2°56.061 4 227 10.6 102370 90
2004-11-23 07:44:28 51°13.618 2°56.061 2.1 201 10.6 102370 90
2004-11-23 07:44:32 51°13.617 2°56.061 3.9 192 10.6 102370 90
2004-11-23 07:44:36 51°13.617 2°56.061 4 179 10.6 102380 90
2004-11-23 07:44:42 51°13.617 2°56.061 4.4 177 10.6 102380 90
2004-11-23 07:44:48 51°13.617 2°56.061 5.8 179 10.6 102380 90
2004-11-23 07:44:52 51°13.617 2°56.061 3 223 10.6 102380 90
2004-11-23 07:44:58 51°13.617 2°56.061 3.6 210 10.6 102370 90
2004-11-23 07:45:02 51°13.617 2°56.061 3.7 214 10.6 102370 90
2004-11-23 07:45:08 51°13.617 2°56.061 5.1 183 10.6 102370 90
2004-11-23 07:45:13 51°13.617 2°56.061 4.5 171 10.6 102370 90
2004-11-23 07:45:18 51°13.617 2°56.061 7.2 181 10.6 102380 90
2004-11-23 07:45:20 51°13.617 2°56.061 7 175 10.6 102380 90
2004-11-23 07:45:31 51°13.617 2°56.061 4.5 183 10.6 102380 90
2004-11-23 07:45:36 51°13.617 2°56.061 4.2 196 10.6 102380 90
2004-11-23 07:45:40 51°13.617 2°56.061 3.1 196 10.6 102380 90
2004-11-23 07:45:46 51°13.618 2°56.061 2.9 186 10.7 102380 90
2004-11-23 07:45:50 51°13.618 2°56.061 4.8 210 10.7 102380 90
2004-11-23 07:45:56 51°13.618 2°56.061 3.3 208 10.6 102370 90
2004-11-23 07:46:01 51°13.618 2°56.061 4 174 10.6 102370 90
2004-11-23 07:46:04 51°13.618 2°56.061 3.4 184 10.7 102380 90
2004-11-23 07:46:08 51°13.618 2°56.061 4.2 204 10.7 102380 90
2004-11-23 07:46:24 51°13.618 2°56.061 7.2 173 10.6 102380 90
2004-11-23 07:46:32 51°13.618 2°56.061 6.8 211 10.6 102380 90
2004-11-23 07:46:37 51°13.618 2°56.061 4.8 194 10.6 102380 90
2004-11-23 07:46:42 51°13.618 2°56.061 3.7 194 10.6 102380 90
2004-11-23 07:46:44 51°13.618 2°56.061 3 182 10.7 102380 89
2004-11-23 07:46:52 51°13.618 2°56.061 5 205 10.7 102380 89
2004-11-23 07:46:56 51°13.618 2°56.061 4.3 198 10.7 102380 90
2004-11-23 07:47:08 51°13.618 2°56.061 5 214 10.6 102380 89
2004-11-23 07:47:16 51°13.618 2°56.061 4.5 210 10.7 102380 89
2004-11-23 07:47:21 51°13.618 2°56.061 3.3 187 10.7 102380 89
2004-11-23 07:47:26 51°13.618 2°56.061 2.7 200 10.7 102380 89
2004-11-23 07:47:30 51°13.618 2°56.061 8.2 207 10.7 102380 89
2004-11-23 07:47:36 51°13.618 2°56.061 5.8 202 10.7 102380 89
2004-11-23 07:47:40 51°13.618 2°56.061 5.2 204 10.7 102380 89
2004-11-23 07:47:46 51°13.618 2°56.061 3.7 189 10.6 102380 89
2004-11-23 07:47:50 51°13.619 2°56.061 5.2 186 10.6 102380 89
2004-11-23 07:47:56 51°13.619 2°56.061 4.2 175 10.6 102380 89
2004-11-23 07:48:00 51°13.619 2°56.061 5.7 209 10.6 102380 89
2004-11-23 07:48:05 51°13.619 2°56.061 3.4 206 10.7 102380 89
2004-11-23 07:48:26 51°13.619 2°56.06 4.7 186 10.7 102380 89
2004-11-23 07:48:32 51°13.619 2°56.06 5.3 197 10.7 102380 89
2004-11-23 07:48:36 51°13.619 2°56.06 4.8 216 10.6 102380 89
2004-11-23 07:48:51 51°13.619 2°56.061 5.1 183 10.6 102380 89
2004-11-23 07:48:56 51°13.619 2°56.061 5.9 196 10.6 102380 89
2004-11-23 07:49:00 51°13.619 2°56.061 4.1 187 10.6 102380 89
2004-11-23 07:49:05 51°13.619 2°56.061 5.7 205 10.6 102380 89
2004-11-23 07:49:10 51°13.619 2°56.061 6.1 206 10.6 102380 89
2004-11-23 07:49:16 51°13.618 2°56.061 4.9 186 10.6 102380 89
2004-11-23 07:49:20 51°13.618 2°56.061 3.5 194 10.6 102380 89
2004-11-23 07:49:25 51°13.618 2°56.061 4 204 10.6 102390 89
2004-11-23 07:49:46 51°13.618 2°56.061 4 205 10.6 102380 89
2004-11-23 07:49:52 51°13.618 2°56.061 5.2 207 10.6 102380 89
2004-11-23 07:49:54 51°13.618 2°56.061 2.9 189 10.6 102380 89
2004-11-23 07:50:04 51°13.618 2°56.061 3.1 197 10.6 102380 89
2004-11-23 07:50:08 51°13.618 2°56.061 4 203 10.6 102380 89
2004-11-23 07:50:12 51°13.618 2°56.06 4.4 198 10.6 102380 89
2004-11-23 07:50:18 51°13.618 2°56.06 3.5 198 10.6 102380 89
2004-11-23 07:50:24 51°13.618 2°56.06 4.5 200 10.6 102380 89
2004-11-23 07:50:28 51°13.618 2°56.061 4.9 204 10.6 102380 89
2004-11-23 07:50:33 51°13.618 2°56.061 2.3 191 10.6 102380 89
2004-11-23 07:50:36 51°13.618 2°56.061 3 196 10.6 102380 89
2004-11-23 07:50:44 51°13.618 2°56.06 3.7 206 10.6 102380 89
2004-11-23 07:50:49 51°13.618 2°56.06 3.7 214 10.6 102390 89
2004-11-23 07:50:54 51°13.618 2°56.06 3.3 207 10.6 102390 89
2004-11-23 07:50:58 51°13.618 2°56.06 4.4 198 10.6 102380 89
2004-11-23 07:51:04 51°13.618 2°56.061 3.8 202 10.6 102380 89
2004-11-23 07:51:08 51°13.618 2°56.061 3.7 197 10.6 102380 89
2004-11-23 07:51:14 51°13.618 2°56.061 3 180 10.6 102380 89
2004-11-23 07:51:18 51°13.618 2°56.061 4.1 195 10.6 102380 89
2004-11-23 07:51:23 51°13.618 2°56.061 4.4 206 10.6 102380 89
2004-11-23 07:51:28 51°13.618 2°56.06 3.5 206 10.6 102380 89
2004-11-23 07:51:46 51°13.618 2°56.06 3.3 186 10.6 102380 89
2004-11-23 07:51:52 51°13.618 2°56.06 5.3 196 10.6 102380 89
2004-11-23 07:51:56 51°13.618 2°56.06 3.7 181 10.6 102380 89
2004-11-23 07:52:00 51°13.618 2°56.06 5.1 201 10.6 102380 89
2004-11-23 07:52:06 51°13.617 2°56.06 4.3 176 10.6 102380 89
2004-11-23 07:52:10 51°13.617 2°56.06 4.6 219 10.6 102380 89
2004-11-23 07:52:16 51°13.617 2°56.06 3.9 197 10.6 102380 89
2004-11-23 07:52:20 51°13.617 2°56.06 4.3 179 10.6 102380 89
2004-11-23 07:52:27 51°13.617 2°56.06 4.9 185 10.6 102380 89
2004-11-23 07:52:32 51°13.617 2°56.06 5.6 201 10.6 102380 89
2004-11-23 07:52:33 51°13.617 2°56.06 5.4 176 10.6 102380 89
2004-11-23 07:52:40 51°13.617 2°56.06 4.6 209 10.6 102380 89
2004-11-23 07:52:46 51°13.617 2°56.06 4.1 197 10.6 102380 89
2004-11-23 07:52:51 51°13.617 2°56.06 2.9 202 10.6 102380 89
2004-11-23 07:52:56 51°13.617 2°56.06 2.2 188 10.6 102390 89
2004-11-23 07:53:02 51°13.617 2°56.06 3.2 198 10.6 102390 89
2004-11-23 07:53:06 51°13.617 2°56.06 3 188 10.6 102390 89
2004-11-23 07:53:12 51°13.617 2°56.06 4 205 10.6 102390 89
2004-11-23 07:53:16 51°13.617 2°56.06 4.2 187 10.6 102390 89
2004-11-23 07:53:22 51°13.617 2°56.06 3 193 10.6 102390 89
2004-11-23 07:53:26 51°13.617 2°56.06 4.4 207 10.6 102390 89
2004-11-23 07:53:32 51°13.617 2°56.06 3 193 10.6 102390 89
2004-11-23 07:53:36 51°13.617 2°56.06 3.3 189 10.6 102390 89
2004-11-23 07:53:42 51°13.617 2°56.06 3.3 193 10.6 102390 89
2004-11-23 07:53:45 51°13.617 2°56.06 3.6 186 10.6 102390 89
2004-11-23 07:53:49 51°13.617 2°56.06 5.2 203 10.6 102390 89
2004-11-23 07:53:56 51°13.617 2°56.06 3 195 10.6 102380 89
2004-11-23 07:54:02 51°13.617 2°56.06 3 198 10.6 102380 89
2004-11-23 07:54:05 51°13.616 2°56.06 3.2 201 10.6 102390 89
2004-11-23 07:54:12 51°13.616 2°56.06 2.7 194 10.6 102390 89
2004-11-23 07:54:15 51°13.616 2°56.06 4.7 214 10.6 102390 89
2004-11-23 07:54:22 51°13.616 2°56.06 2.9 198 10.6 102390 89
2004-11-23 07:54:24 51°13.616 2°56.06 2.7 195 10.6 102390 89
2004-11-23 07:54:32 51°13.616 2°56.06 3.9 201 10.6 102390 89
2004-11-23 07:54:36 51°13.616 2°56.06 3.7 186 10.6 102390 89
2004-11-23 07:54:42 51°13.616 2°56.06 4.5 177 10.6 102390 89
2004-11-23 07:54:46 51°13.616 2°56.06 3 201 10.6 102390 89
2004-11-23 07:54:51 51°13.616 2°56.06 2.9 199 10.6 102390 89
2004-11-23 07:54:56 51°13.616 2°56.06 5 201 10.6 102390 89
2004-11-23 07:55:01 51°13.616 2°56.06 6.7 211 10.6 102390 89
2004-11-23 07:55:07 51°13.616 2°56.06 5.1 182 10.6 102390 89
2004-11-23 07:55:26 51°13.616 2°56.06 4.6 202 10.6 102390 89
2004-11-23 07:55:32 51°13.616 2°56.06 6.2 213 10.6 102390 89
2004-11-23 07:55:36 51°13.616 2°56.06 3.5 190 10.6 102390 89
2004-11-23 07:55:41 51°13.616 2°56.06 4.4 206 10.6 102390 89
2004-11-23 07:55:44 51°13.616 2°56.06 4.8 205 10.6 102390 89
2004-11-23 07:55:51 51°13.616 2°56.06 3.6 204 10.6 102390 89
2004-11-23 07:55:56 51°13.616 2°56.06 4.3 203 10.6 102390 89
2004-11-23 07:56:00 51°13.616 2°56.06 3 197 10.6 102390 89
2004-11-23 07:56:06 51°13.616 2°56.06 6.5 206 10.6 102390 89
2004-11-23 07:56:12 51°13.617 2°56.06 3.9 190 10.6 102390 89
2004-11-23 07:56:16 51°13.617 2°56.06 5.5 207 10.6 102390 89
2004-11-23 07:56:21 51°13.617 2°56.06 4 194 10.6 102390 89
2004-11-23 07:56:24 51°13.617 2°56.06 4.8 205 10.6 102390 89
2004-11-23 07:56:32 51°13.617 2°56.061 6.3 203 10.6 102390 89
2004-11-23 07:56:34 51°13.617 2°56.061 3.7 201 10.6 102390 89
2004-11-23 07:56:42 51°13.617 2°56.061 4.7 200 10.6 102390 89
2004-11-23 07:56:46 51°13.617 2°56.061 2.9 200 10.6 102390 89
2004-11-23 07:56:52 51°13.617 2°56.061 4.6 199 10.6 102390 89
2004-11-23 07:56:56 51°13.617 2°56.061 3.4 204 10.6 102390 89
2004-11-23 07:57:02 51°13.617 2°56.061 5.5 196 10.6 102390 89
2004-11-23 07:57:06 51°13.617 2°56.061 4.6 217 10.6 102390 89
2004-11-23 07:57:12 51°13.618 2°56.061 5.3 191 10.6 102390 89
2004-11-23 07:57:17 51°13.617 2°56.061 4.4 204 10.6 102390 89
2004-11-23 07:57:20 51°13.617 2°56.061 3.3 175 10.6 102390 89
2004-11-23 07:57:26 51°13.617 2°56.06 3.3 204 10.6 102390 89
2004-11-23 07:57:41 51°13.617 2°56.06 4.6 203 10.6 102390 89
2004-11-23 07:57:50 51°13.617 2°56.06 4 195 10.6 102390 89
2004-11-23 07:57:56 51°13.617 2°56.06 4.8 202 10.5 102390 89
2004-11-23 07:58:00 51°13.617 2°56.06 3.4 194 10.5 102390 89
2004-11-23 07:58:06 51°13.617 2°56.06 2.7 186 10.6 102390 89
2004-11-23 07:58:10 51°13.617 2°56.06 2.1 196 10.6 102390 89
2004-11-23 07:58:16 51°13.617 2°56.06 2.8 196 10.6 102390 89
2004-11-23 07:58:20 51°13.617 2°56.06 4.5 198 10.5 102390 89
2004-11-23 07:58:24 51°13.617 2°56.06 4.2 206 10.5 102390 89
2004-11-23 07:58:30 51°13.617 2°56.06 4 185 10.6 102390 89
2004-11-23 07:58:36 51°13.617 2°56.06 3.6 171 10.6 102390 89
2004-11-23 07:58:40 51°13.617 2°56.06 4 207 10.6 102390 89
2004-11-23 07:58:44 51°13.617 2°56.06 2.7 193 10.6 102390 89
2004-11-23 07:58:49 51°13.617 2°56.06 4.6 207 10.5 102390 89
2004-11-23 07:58:56 51°13.617 2°56.061 2.8 196 10.5 102390 89
2004-11-23 07:59:00 51°13.617 2°56.061 3.7 200 10.6 102390 89
2004-11-23 07:59:04 51°13.618 2°56.061 3.8 203 10.6 102390 89
2004-11-23 07:59:10 51°13.618 2°56.061 2.4 186 10.6 102390 90
2004-11-23 07:59:13 51°13.618 2°56.061 2.6 183 10.6 102390 90
2004-11-23 07:59:20 51°13.618 2°56.061 4.2 202 10.6 102390 90
2004-11-23 07:59:24 51°13.618 2°56.061 3.6 185 10.6 102390 90
2004-11-23 07:59:29 51°13.618 2°56.061 3.7 198 10.6 102400 90
2004-11-23 07:59:34 51°13.618 2°56.061 3.5 182 10.6 102400 90
2004-11-23 07:59:40 51°13.618 2°56.061 4 211 10.6 102400 90
2004-11-23 07:59:45 51°13.618 2°56.061 3.4 206 10.6 102400 90
2004-11-23 07:59:50 51°13.618 2°56.061 5.1 197 10.6 102400 90
2004-11-23 07:59:56 51°13.618 2°56.061 3.7 200 10.6 102400 90
2004-11-23 08:00:00 51°13.618 2°56.061 3.9 201 10.6 102390 90
2004-11-23 08:00:12 51°13.618 2°56.061 3.5 189 10.6 102390 90
2004-11-23 08:00:20 51°13.618 2°56.061 2.9 198 10.6 102400 90
2004-11-23 08:00:24 51°13.618 2°56.061 3.6 190 10.6 102400 90
2004-11-23 08:00:28 51°13.618 2°56.061 3.3 165 10.6 102400 90
2004-11-23 08:00:50 51°13.618 2°56.061 3.8 205 10.6 102400 90
2004-11-23 08:00:56 51°13.618 2°56.061 2.7 173 10.6 102400 90
2004-11-23 08:01:00 51°13.618 2°56.061 2.9 200 10.6 102390 90
2004-11-23 08:01:06 51°13.618 2°56.061 2.9 180 10.6 102390 90
2004-11-23 08:01:08 51°13.618 2°56.061 2.7 189 10.6 102400 90
2004-11-23 08:01:30 51°13.618 2°56.061 3.5 191 10.6 102400 90
2004-11-23 08:01:36 51°13.618 2°56.061 4 192 10.6 102400 90
2004-11-23 08:01:38 51°13.618 2°56.061 4 176 10.6 102400 90
2004-11-23 08:01:46 51°13.618 2°56.061 4.3 179 10.6 102400 90
2004-11-23 08:01:50 51°13.618 2°56.061 3 183 10.6 102400 90
2004-11-23 08:01:54 51°13.618 2°56.061 3.8 195 10.6 102400 90
2004-11-23 08:02:00 51°13.619 2°56.061 3.9 188 10.6 102400 90
2004-11-23 08:02:03 51°13.619 2°56.061 2.8 193 10.6 102400 90
2004-11-23 08:02:22 51°13.619 2°56.06 5 200 10.6 102400 90
2004-11-23 08:02:28 51°13.619 2°56.06 3.5 196 10.7 102400 90
2004-11-23 08:02:32 51°13.619 2°56.06 2.8 189 10.7 102400 90
2004-11-23 08:02:36 51°13.619 2°56.06 2.3 205 10.6 102400 90
2004-11-23 08:02:42 51°13.619 2°56.06 2.5 193 10.6 102400 90
2004-11-23 08:02:48 51°13.618 2°56.06 2.7 191 10.6 102400 90
2004-11-23 08:02:52 51°13.618 2°56.06 3.1 178 10.6 102400 90
2004-11-23 08:02:58 51°13.618 2°56.06 5.8 180 10.7 102400 90
2004-11-23 08:03:02 51°13.618 2°56.06 4.1 181 10.7 102400 90
2004-11-23 08:03:08 51°13.618 2°56.06 2.9 196 10.7 102400 90
2004-11-23 08:03:10 51°13.618 2°56.06 2.7 183 10.7 102400 90
2004-11-23 08:03:17 51°13.618 2°56.06 4.1 184 10.7 102400 90
2004-11-23 08:03:22 51°13.618 2°56.06 4.4 179 10.7 102400 90
2004-11-23 08:03:27 51°13.618 2°56.061 5.6 181 10.7 102400 90
2004-11-23 08:03:30 51°13.618 2°56.061 4.2 181 10.7 102400 90
2004-11-23 08:03:36 51°13.619 2°56.061 3.1 184 10.7 102400 90
2004-11-23 08:03:42 51°13.619 2°56.061 3.2 190 10.7 102400 90
2004-11-23 08:03:48 51°13.619 2°56.061 3.6 195 10.7 102400 90
2004-11-23 08:03:51 51°13.619 2°56.061 2.7 197 10.7 102400 90
2004-11-23 08:03:58 51°13.619 2°56.061 5.8 197 10.7 102400 90
2004-11-23 08:04:02 51°13.619 2°56.061 3.1 189 10.7 102400 90
2004-11-23 08:04:05 51°13.619 2°56.061 4 183 10.7 102400 90
2004-11-23 08:04:12 51°13.619 2°56.061 2.4 193 10.7 102400 90
2004-11-23 08:04:17 51°13.619 2°56.061 3.6 189 10.7 102400 90
2004-11-23 08:04:21 51°13.619 2°56.061 4.5 197 10.7 102400 90
2004-11-23 08:04:26 51°13.619 2°56.061 3.5 178 10.7 102390 90
2004-11-23 08:04:33 51°13.619 2°56.061 6.3 181 10.7 102390 90
2004-11-23 08:04:37 51°13.619 2°56.061 7 169 10.7 102400 90
2004-11-23 08:04:41 51°13.619 2°56.061 5 182 10.7 102400 90
2004-11-23 08:04:47 51°13.619 2°56.061 5.3 175 10.7 102400 90
2004-11-23 08:04:53 51°13.619 2°56.061 4.7 178 10.7 102400 90
2004-11-23 08:04:58 51°13.619 2°56.061 3.8 190 10.7 102400 90
2004-11-23 08:05:23 51°13.62 2°56.06 4.7 214 10.7 102400 90
2004-11-23 08:05:28 51°13.62 2°56.06 3.7 190 10.7 102400 90
2004-11-23 08:05:33 51°13.62 2°56.06 5.4 171 10.7 102400 90
2004-11-23 08:05:38 51°13.62 2°56.06 4.8 170 10.7 102400 90
2004-11-23 08:05:43 51°13.62 2°56.06 3.7 178 10.7 102400 90
2004-11-23 08:05:47 51°13.62 2°56.06 4 185 10.7 102400 90
2004-11-23 08:05:53 51°13.62 2°56.06 4.7 187 10.7 102400 90
2004-11-23 08:05:58 51°13.62 2°56.06 4.5 202 10.7 102400 90
2004-11-23 08:06:03 51°13.62 2°56.06 3.6 189 10.7 102400 90
2004-11-23 08:06:08 51°13.62 2°56.06 5 217 10.7 102400 90
2004-11-23 08:06:13 51°13.62 2°56.06 6 199 10.7 102400 90
2004-11-23 08:06:17 51°13.62 2°56.06 4.7 192 10.7 102400 90
2004-11-23 08:06:23 51°13.62 2°56.06 5 206 10.7 102400 90
2004-11-23 08:06:28 51°13.62 2°56.06 3.7 198 10.7 102400 90
2004-11-23 08:06:34 51°13.62 2°56.06 4.4 182 10.7 102400 90
2004-11-23 08:06:37 51°13.62 2°56.06 3.2 195 10.7 102400 90
2004-11-23 08:06:43 51°13.62 2°56.06 3.4 206 10.7 102400 90
2004-11-23 08:06:49 51°13.62 2°56.06 4.2 209 10.7 102400 90
2004-11-23 08:06:53 51°13.62 2°56.06 3.2 179 10.7 102400 90
2004-11-23 08:06:57 51°13.62 2°56.06 3.1 189 10.7 102400 90
2004-11-23 08:07:03 51°13.62 2°56.06 4.7 203 10.7 102400 90
2004-11-23 08:07:07 51°13.62 2°56.06 4.1 176 10.7 102400 90
2004-11-23 08:07:13 51°13.62 2°56.06 3.5 187 10.7 102400 90
2004-11-23 08:07:18 51°13.62 2°56.06 2.8 201 10.7 102400 90
2004-11-23 08:07:21 51°13.62 2°56.06 3 189 10.7 102400 90
2004-11-23 08:07:27 51°13.62 2°56.06 4.2 185 10.7 102400 90
2004-11-23 08:07:55 51°13.62 2°56.061 4.2 209 10.7 102400 90
2004-11-23 08:08:00 51°13.62 2°56.061 5.7 205 10.7 102400 90
2004-11-23 08:08:05 51°13.62 2°56.061 4.8 198 10.7 102400 90
2004-11-23 08:08:09 51°13.62 2°56.061 3.6 189 10.8 102400 90
2004-11-23 08:08:14 51°13.62 2°56.061 2.6 197 10.8 102400 90
2004-11-23 08:08:20 51°13.62 2°56.061 3.6 200 10.8 102400 90
2004-11-23 08:08:25 51°13.62 2°56.061 4.7 203 10.8 102400 90
2004-11-23 08:08:30 51°13.62 2°56.061 4.2 191 10.7 102400 90
2004-11-23 08:08:35 51°13.62 2°56.061 5.7 202 10.7 102400 90
2004-11-23 08:08:39 51°13.619 2°56.061 6.1 203 10.8 102400 90
2004-11-23 08:08:45 51°13.619 2°56.061 4.3 180 10.8 102400 90
2004-11-23 08:08:49 51°13.619 2°56.061 3.6 186 10.8 102400 90
2004-11-23 08:09:07 51°13.618 2°56.061 4.1 194 10.8 102400 90
2004-11-23 08:09:13 51°13.619 2°56.061 4.7 206 10.8 102400 90
2004-11-23 08:09:17 51°13.618 2°56.061 3.4 204 10.7 102400 90
2004-11-23 08:09:21 51°13.619 2°56.061 3 181 10.7 102400 90
2004-11-23 08:09:59 51°13.618 2°56.061 3.7 203 10.8 102400 90
2004-11-23 08:10:05 51°13.618 2°56.061 4.5 210 10.8 102400 90
2004-11-23 08:10:09 51°13.618 2°56.061 3.4 192 10.8 102410 90
2004-11-23 08:10:15 51°13.618 2°56.061 4.6 201 10.8 102410 90
2004-11-23 08:10:19 51°13.618 2°56.061 5.3 204 10.7 102400 90
2004-11-23 08:10:31 51°13.618 2°56.061 4.4 197 10.7 102400 90
2004-11-23 08:10:35 51°13.618 2°56.061 3.7 184 10.7 102400 90
2004-11-23 08:10:41 51°13.618 2°56.061 5.1 199 10.7 102410 90
2004-11-23 08:10:47 51°13.618 2°56.061 5.6 205 10.7 102410 90
2004-11-23 08:10:51 51°13.618 2°56.061 3.4 184 10.7 102410 90
2004-11-23 08:10:57 51°13.618 2°56.061 4.9 193 10.7 102410 90
2004-11-23 08:11:01 51°13.618 2°56.061 3.8 198 10.7 102410 90
2004-11-23 08:11:06 51°13.618 2°56.061 4 202 10.7 102410 90
2004-11-23 08:11:11 51°13.618 2°56.061 4.3 195 10.7 102400 90
2004-11-23 08:11:16 51°13.618 2°56.061 3.7 200 10.7 102400 90
2004-11-23 08:11:21 51°13.618 2°56.061 3.8 188 10.7 102400 90
2004-11-23 08:11:24 51°13.618 2°56.061 3.8 197 10.7 102400 90
2004-11-23 08:11:29 51°13.618 2°56.061 2.8 186 10.8 102400 91
2004-11-23 08:11:33 51°13.617 2°56.062 4.3 190 10.8 102400 91
2004-11-23 08:11:50 51°13.617 2°56.062 3 197 10.8 102400 91
2004-11-23 08:11:56 51°13.617 2°56.062 3.4 190 10.8 102400 91
2004-11-23 08:12:01 51°13.617 2°56.062 4.3 182 10.8 102400 91
2004-11-23 08:12:05 51°13.617 2°56.062 3.9 189 10.8 102400 91
2004-11-23 08:12:11 51°13.617 2°56.062 3.1 204 10.8 102410 91
2004-11-23 08:12:14 51°13.617 2°56.062 2.7 206 10.8 102410 91
2004-11-23 08:12:25 51°13.617 2°56.061 3 200 10.8 102410 91
2004-11-23 08:12:29 51°13.617 2°56.061 2.8 182 10.9 102410 91
2004-11-23 08:12:35 51°13.617 2°56.061 2.9 184 10.9 102410 91
2004-11-23 08:12:39 51°13.617 2°56.061 3.3 189 10.9 102410 91
2004-11-23 08:12:45 51°13.617 2°56.061 4.1 184 10.9 102410 91
2004-11-23 08:12:49 51°13.617 2°56.061 3.5 187 10.9 102410 91
2004-11-23 08:12:55 51°13.617 2°56.062 4.3 192 10.9 102410 91
2004-11-23 08:13:01 51°13.617 2°56.061 3 202 10.9 102410 90
2004-11-23 08:13:05 51°13.617 2°56.061 4.2 203 10.9 102410 90
2004-11-23 08:13:10 51°13.617 2°56.061 4.4 196 10.9 102410 91
2004-11-23 08:13:15 51°13.617 2°56.061 4.6 205 10.9 102410 91
2004-11-23 08:13:21 51°13.617 2°56.061 4.5 189 10.8 102410 91
2004-11-23 08:13:33 51°13.617 2°56.061 4.7 208 10.8 102410 91
2004-11-23 08:13:38 51°13.616 2°56.061 5.2 210 10.8 102420 90
2004-11-23 08:13:53 51°13.617 2°56.059 5.6 205 10.8 102420 90
2004-11-23 08:13:57 51°13.617 2°56.057 7.5 206 10.8 102410 90
2004-11-23 08:14:01 51°13.618 2°56.054 6.4 210 10.8 102410 90
2004-11-23 08:14:07 51°13.619 2°56.05 6.6 199 10.8 102410 90
2004-11-23 08:14:10 51°13.619 2°56.048 6.5 200 10.8 102410 90
2004-11-23 08:14:17 51°13.62 2°56.042 7 212 10.7 102420 90
2004-11-23 08:14:23 51°13.622 2°56.037 7.2 208 10.7 102420 90
2004-11-23 08:14:26 51°13.623 2°56.034 7 203 10.7 102420 90
2004-11-23 08:14:33 51°13.625 2°56.026 6.5 216 10.7 102420 90
2004-11-23 08:14:37 51°13.626 2°56.022 5.9 209 10.7 102420 90
2004-11-23 08:14:45 51°13.628 2°56.012 7.9 217 10.7 102420 90
2004-11-23 08:14:51 51°13.629 2°56.005 5.8 210 10.7 102420 90
2004-11-23 08:14:57 51°13.63 2°56 5.2 207 10.7 102420 90
2004-11-23 08:15:02 51°13.631 2°55.996 6.6 215 10.7 102420 90
2004-11-23 08:15:06 51°13.631 2°55.994 5.7 212 10.7 102420 90
2004-11-23 08:15:09 51°13.631 2°55.994 5.3 216 10.7 102420 90
2004-11-23 08:15:17 51°13.63 2°55.994 5.8 226 10.7 102420 90
2004-11-23 08:15:41 51°13.626 2°56.005 3.3 196 10.7 102420 90
2004-11-23 08:15:49 51°13.624 2°56.01 4.2 197 10.6 102420 90
2004-11-23 08:15:54 51°13.623 2°56.014 4.7 175 10.6 102420 90
2004-11-23 08:15:58 51°13.621 2°56.017 4.6 185 10.6 102420 90
2004-11-23 08:16:01 51°13.62 2°56.02 4.3 192 10.6 102420 90
2004-11-23 08:16:09 51°13.617 2°56.027 3.6 189 10.7 102420 91
2004-11-23 08:16:11 51°13.616 2°56.029 3.6 181 10.7 102420 91
2004-11-23 08:16:17 51°13.613 2°56.035 4.2 180 10.7 102420 91
2004-11-23 08:16:23 51°13.609 2°56.042 4.3 183 10.7 102420 91
2004-11-23 08:16:27 51°13.607 2°56.046 3.2 188 10.7 102420 91
2004-11-23 08:16:32 51°13.604 2°56.052 2.8 181 10.7 102420 91
2004-11-23 08:16:39 51°13.598 2°56.061 3.8 185 10.7 102420 91
2004-11-23 08:16:41 51°13.597 2°56.063 3.6 159 10.7 102420 91
2004-11-23 08:16:47 51°13.592 2°56.071 2.9 168 10.7 102420 91
2004-11-23 08:16:51 51°13.589 2°56.076 4.1 169 10.7 102420 91
2004-11-23 08:17:03 51°13.58 2°56.091 4.6 161 10.7 102420 91
2004-11-23 08:17:08 51°13.577 2°56.097 3.9 178 10.7 102420 91
2004-11-23 08:17:13 51°13.573 2°56.103 4.5 171 10.7 102420 91
2004-11-23 08:17:18 51°13.569 2°56.109 5.7 164 10.7 102420 90
2004-11-23 08:17:21 51°13.567 2°56.112 4 149 10.7 102420 90
2004-11-23 08:17:55 51°13.545 2°56.153 2.8 219 -999 -999 -999
2004-11-23 08:18:00 51°13.543 2°56.16 2.3 211 10.6 102420 90
2004-11-23 08:18:05 51°13.541 2°56.168 4.3 225 10.6 102420 90
2004-11-23 08:18:09 51°13.54 2°56.175 3.6 231 10.6 102420 90
2004-11-23 08:18:15 51°13.539 2°56.185 3.5 253 10.6 102420 90
2004-11-23 08:18:20 51°13.539 2°56.193 4.6 259 10.6 102420 91
2004-11-23 08:18:23 51°13.539 2°56.197 4.4 241 10.6 102420 91
2004-11-23 08:18:29 51°13.54 2°56.205 4.6 245 10.7 102420 91
2004-11-23 08:18:34 51°13.54 2°56.211 4.4 241 10.7 102420 91
2004-11-23 08:18:40 51°13.541 2°56.215 4.5 242 10.7 102430 91
2004-11-23 08:18:43 51°13.541 2°56.217 5.3 267 10.7 102430 91
2004-11-23 08:19:14 51°13.538 2°56.214 4.7 252 10.6 102420 91
2004-11-23 08:19:21 51°13.536 2°56.211 5 251 10.6 102430 90
2004-11-23 08:19:25 51°13.535 2°56.21 4.5 259 10.6 102430 90
2004-11-23 08:19:30 51°13.534 2°56.21 6.7 265 10.6 102430 90
2004-11-23 08:19:34 51°13.534 2°56.21 6.4 263 10.6 102430 90
2004-11-23 08:19:39 51°13.534 2°56.211 5.9 260 10.6 102430 91
2004-11-23 08:19:46 51°13.536 2°56.214 6 278 10.6 102430 91
2004-11-23 08:19:50 51°13.537 2°56.215 6 286 10.6 102430 91
2004-11-23 08:19:56 51°13.537 2°56.216 5.5 288 10.6 102430 91
2004-11-23 08:19:59 51°13.537 2°56.216 4.8 275 10.6 102420 91
2004-11-23 08:20:05 51°13.536 2°56.215 6.1 276 10.6 102420 91
2004-11-23 08:20:07 51°13.535 2°56.215 5.7 272 10.6 102430 91
2004-11-23 08:20:29 51°13.532 2°56.214 6.5 302 10.6 102430 91
2004-11-23 08:20:35 51°13.535 2°56.215 6.9 43 10.6 102430 91
2004-11-23 08:20:39 51°13.537 2°56.216 6.8 313 10.6 102430 91
2004-11-23 08:20:47 51°13.541 2°56.216 7.1 40 10.5 102430 91
2004-11-23 08:20:52 51°13.543 2°56.216 5.9 324 10.5 102430 91
2004-11-23 08:20:56 51°13.543 2°56.216 4.8 322 10.5 102430 91
2004-11-23 08:20:58 51°13.543 2°56.217 5 326 10.5 102420 91
2004-11-23 08:21:15 51°13.539 2°56.221 4.5 311 10.5 102420 91